Regional Weather Roundup
Issued by NWS

Home | Current Version | Previous Version | Text Only | Print | Product List | Glossary On
Versions: 1 2 3 4 5 6 7 8 9 10 11 12 13 14 15 16 17 18 19 20 21 22 23 24 25 26 27 28 29 30 31 32 33 34 35 36 37 38 39 40 41 42 43 44 45 46 47 48 49 50
957
ASUS45 KBOI 220610
RWRID

IDAHO REGIONAL WEATHER ROUNDUP
NATIONAL WEATHER SERVICE BOISE ID
1100 PM MST SAT JAN 21 2017

NOTE: "FAIR" INDICATES FEW OR NO CLOUDS BELOW 12000 FEET
WITH NO SIGNIFICANT WEATHER AND/OR OBSTRUCTIONS TO VISIBILITY

IDZ012-014-220700-
SOUTHWEST IDAHO


CITY           SKY/WX    TMP DP  RH WIND       PRES   REMARKS
BOISE          PTCLDY    37  30  75 SE10      29.80R WCI  30
CALDWELL       CLOUDY    37  31  78 SE12      29.81R WCI  29
MOUNTAIN HOME  PTCLDY    31  31 100 E12       29.82S WCI  21
$$

IDZ016-017-220700-
SOUTHCENTRAL IDAHO


CITY           SKY/WX    TMP DP  RH WIND       PRES   REMARKS
BURLEY         CLOUDY    35  24  64 SW13      29.84R WCI  26
JEROME         CLOUDY    31  24  75 E8        29.85R WCI  23
TWIN FALLS     CLOUDY    34  23  64 S12       29.83R WCI  25
$$

IDZ019>023-220700-
SOUTHEAST IDAHO


CITY           SKY/WX    TMP DP  RH WIND       PRES   REMARKS
IDAHO FALLS    CLEAR     26  23  88 SW15G22   29.84R WCI  14
POCATELLO      CLEAR     28  21  75 SW8       29.85R WCI  20
REXBURG        CLOUDY    27  24  89 SW13      29.81R WCI  16
$$

IDZ006-010-011-018-031-032-220700-
CENTRAL IDAHO MOUNTAINS


CITY           SKY/WX    TMP DP  RH WIND       PRES   REMARKS
MCCALL         CLOUDY    30  25  81 SE8       29.71R WCI  22
HAILEY         CLOUDY    19  18  93 NW8       29.84R WCI   9
STANLEY          N/A     19  16  88 W3        29.75R
SALMON         CLOUDY     9   7  92 N5        29.82R WCI   0
CHALLIS        CLOUDY     9   8  96 CALM      29.79R
$$

IDZ002-004-006-007-026-220700-
NORTHERN IDAHO


CITY           SKY/WX    TMP DP  RH WIND       PRES   REMARKS
LEWISTON       CLOUDY    38  31  76 E5        29.72R WCI  34
LOWELL           N/A     32  30  92 CALM      29.80R
COEUR D`ALENE  CLOUDY    34  32  92 NE7       29.71R WCI  28
MULLAN PASS    CLOUDY    25  22  88 S6        29.63R WCI  18
$$




USA.gov is the U.S. government's official web portal to all federal, state and local government web resources and services.